Location: Góry Miechowskie
(50.3599°N, 20.1803°E)
Time: 02:08:40
(UTC+00:00)

Vanguard 2 Rocket - Pass Details

Date: 14 September 2024
Orbit: 553 x 3298 km, 32.9° (Epoch: 14 October)

Event Time Altitude Azimuth Distance (km) Brightness Sun altitude
Exits shadow 01:42:59 28° 209° (SSW) 3,649 9.4 -23.0°
Maximum altitude 01:49:24 39° 167° (SSE) 3,572 9.6 -22.1°
Drops below altitude 10° 02:05:56 10° 109° (ESE) 6,192 11.6 -20.0°
Sets 02:11:26 0° 103° (ESE) 7,279 12.2 -19.2°
